• In Russia
  • List of Countries
  • For 7 days
  • Water Temperature
  • Satellite Maps
  • Weather Map
  • Weather Widgets
  • user-avatar
    Login

    Hourly Weather Lezhe

    Today, 24 November, Friday

    Time Temperature Precipitation Wind Pressure Humidity
    00:00 +9°C° 0 mm 1 mps 741 mmHg 73%
    01:00 +8°C° 0 mm 1 mps 741 mmHg 72%
    02:00 +8°C° 0 mm 1 mps 741 mmHg 72%
    03:00 +8°C° 0 mm 1 mps 741 mmHg 73%
    04:00 +8°C° 0 mm 1 mps 741 mmHg 73%
    05:00 +8°C° 0 mm 1 mps 741 mmHg 74%
    06:00 +8°C° 0 mm 1 mps 741 mmHg 75%
    07:00 +8°C° 0 mm 1 mps 741 mmHg 75%
    08:00 +10°C° 0 mm 1 mps 741 mmHg 71%
    09:00 +11°C° 0 mm 1 mps 741 mmHg 67%
    10:00 +13°C° 0 mm 1 mps 741 mmHg 62%
    11:00 +14°C° 0 mm 1 mps 741 mmHg 62%
    12:00 +14°C° 0 mm 1 mps 740 mmHg 61%
    13:00 +15°C° 0 mm 1 mps 740 mmHg 61%
    14:00 +14°C° 0 mm 1 mps 740 mmHg 68%
    15:00 +12°C° 0 mm 1 mps 740 mmHg 75%
    16:00 +11°C° 0 mm 1 mps 740 mmHg 81%
    17:00 +11°C° 0 mm 1 mps 740 mmHg 84%
    18:00 +10°C° 0 mm 1 mps 741 mmHg 86%
    19:00 +9°C° 0 mm 1 mps 741 mmHg 89%
    20:00 +9°C° 0 mm 1 mps 741 mmHg 88%
    21:00 +9°C° 0 mm 1 mps 741 mmHg 88%
    22:00 +9°C° 0 mm 1 mps 741 mmHg 88%
    23:00 +9°C° 0 mm 1 mps 741 mmHg 87%

    Tomorrow, 25 November, Saturday

    Time Temperature Precipitation Wind Pressure Humidity
    00:00 +9°C° 0 mm 1 mps 741 mmHg 86%
    01:00 +8°C° 0 mm 1 mps 741 mmHg 85%
    02:00 +8°C° 0 mm 1 mps 741 mmHg 84%
    03:00 +8°C° 0 mm 1 mps 741 mmHg 84%
    04:00 +8°C° 0 mm 1 mps 740 mmHg 83%
    05:00 +8°C° 0 mm 1 mps 740 mmHg 82%
    06:00 +8°C° 0 mm 1 mps 740 mmHg 82%
    07:00 +8°C° 0 mm 1 mps 740 mmHg 81%
    08:00 +8°C° 0 mm 2 mps 740 mmHg 75%
    09:00 +10°C° 0 mm 2 mps 740 mmHg 69%
    10:00 +13°C° 0 mm 2 mps 740 mmHg 63%
    11:00 +13°C° 0 mm 2 mps 739 mmHg 63%
    12:00 +14°C° 0 mm 2 mps 739 mmHg 64%
    13:00 +14°C° 0 mm 2 mps 738 mmHg 64%
    14:00 +13°C° 0 mm 2 mps 738 mmHg 70%
    15:00 +12°C° 0 mm 2 mps 738 mmHg 76%
    16:00 +11°C° 0 mm 1 mps 738 mmHg 83%
    17:00 +10°C° 0 mm 2 mps 738 mmHg 85%
    18:00 +9°C° 0 mm 2 mps 738 mmHg 87%
    19:00 +8°C° 0 mm 2 mps 739 mmHg 89%
    20:00 +8°C° 0 mm 2 mps 739 mmHg 88%
    21:00 +8°C° 0 mm 3 mps 739 mmHg 87%
    22:00 +8°C° 0 mm 3 mps 739 mmHg 87%
    23:00 +9°C° 0.1 mm 3 mps 738 mmHg 85%

    Day after tomorrow, 26 November, Sunday

    Time Temperature Precipitation Wind Pressure Humidity
    00:00 +9°C° 0.1 mm 3 mps 738 mmHg 83%
    01:00 +9°C° 0.1 mm 3 mps 738 mmHg 81%
    02:00 +9°C° 0.2 mm 3 mps 738 mmHg 80%
    03:00 +9°C° 0.2 mm 3 mps 737 mmHg 80%
    04:00 +9°C° 0.2 mm 3 mps 737 mmHg 80%
    05:00 +9°C° 0.4 mm 3 mps 737 mmHg 81%
    06:00 +9°C° 0.4 mm 3 mps 737 mmHg 82%
    07:00 +8°C° 0.4 mm 4 mps 737 mmHg 83%
    08:00 +10°C° 0.6 mm 4 mps 736 mmHg 82%
    09:00 +11°C° 0.6 mm 4 mps 736 mmHg 81%
    10:00 +11°C° 0.6 mm 4 mps 736 mmHg 81%
    11:00 +12°C° 0.6 mm 5 mps 735 mmHg 81%
    12:00 +12°C° 0.6 mm 5 mps 735 mmHg 81%
    13:00 +13°C° 0.6 mm 5 mps 734 mmHg 81%
    14:00 +12°C° 1.6 mm 5 mps 734 mmHg 83%
    15:00 +12°C° 1.6 mm 5 mps 734 mmHg 85%
    16:00 +12°C° 1.6 mm 5 mps 733 mmHg 87%
    17:00 +12°C° 1.9 mm 5 mps 733 mmHg 88%
    18:00 +12°C° 1.9 mm 4 mps 733 mmHg 89%
    19:00 +11°C° 1.9 mm 4 mps 733 mmHg 89%
    20:00 +11°C° 1.2 mm 4 mps 733 mmHg 91%
    21:00 +11°C° 1.2 mm 3 mps 733 mmHg 92%
    22:00 +11°C° 1.2 mm 3 mps 733 mmHg 93%
    23:00 +10°C° 0.5 mm 3 mps 733 mmHg 92%

    27 November, Monday

    Time Temperature Precipitation Wind Pressure Humidity
    00:00 +10°C° 0.5 mm 2 mps 733 mmHg 91%
    01:00 +10°C° 0.5 mm 2 mps 733 mmHg 90%
    02:00 +9°C° 0.2 mm 2 mps 733 mmHg 90%
    03:00 +9°C° 0.2 mm 2 mps 732 mmHg 90%
    04:00 +8°C° 0.2 mm 2 mps 732 mmHg 90%
    05:00 +8°C° 0.3 mm 2 mps 733 mmHg 89%
    06:00 +8°C° 0.3 mm 2 mps 733 mmHg 88%
    07:00 +8°C° 0.3 mm 3 mps 733 mmHg 87%
    08:00 +8°C° 0.2 mm 3 mps 734 mmHg 82%
    09:00 +9°C° 0.2 mm 3 mps 734 mmHg 77%
    10:00 +8°C° 0.2 mm 4 mps 735 mmHg 72%
    11:00 +8°C° 0.1 mm 4 mps 735 mmHg 69%
    12:00 +8°C° 0.1 mm 4 mps 735 mmHg 67%
    13:00 +8°C° 0.1 mm 4 mps 735 mmHg 65%
    14:00 +8°C° 0 mm 4 mps 736 mmHg 67%
    15:00 +7°C° 0 mm 4 mps 736 mmHg 69%
    16:00 +6°C° 0 mm 4 mps 736 mmHg 71%
    17:00 +5°C° 0 mm 4 mps 737 mmHg 72%
    18:00 +4°C° 0 mm 4 mps 737 mmHg 73%
    19:00 +3°C° 0 mm 4 mps 737 mmHg 75%
    20:00 +3°C° 0 mm 4 mps 737 mmHg 74%
    21:00 +3°C° 0 mm 4 mps 738 mmHg 74%
    22:00 +1°C° 0 mm 4 mps 738 mmHg 74%
    23:00 +1°C° 0 mm 4 mps 738 mmHg 74%

    28 November, Tuesday

    Time Temperature Precipitation Wind Pressure Humidity
    00:00 +2°C° 0 mm 3 mps 738 mmHg 73%
    01:00 +2°C° 0 mm 3 mps 738 mmHg 73%
    02:00 +2°C° 0 mm 3 mps 738 mmHg 73%
    03:00 +1°C° 0 mm 3 mps 738 mmHg 72%
    04:00 +1°C° 0 mm 3 mps 738 mmHg 72%
    05:00 +1°C° 0 mm 3 mps 738 mmHg 71%
    06:00 +1°C° 0 mm 3 mps 738 mmHg 70%
    07:00 +1°C° 0 mm 3 mps 738 mmHg 69%
    08:00 +3°C° 0 mm 3 mps 738 mmHg 64%
    09:00 +4°C° 0 mm 3 mps 738 mmHg 58%
    10:00 +6°C° 0 mm 2 mps 738 mmHg 52%
    11:00 +7°C° 0 mm 2 mps 738 mmHg 50%
    12:00 +8°C° 0 mm 2 mps 738 mmHg 49%
    13:00 +8°C° 0 mm 2 mps 737 mmHg 47%
    14:00 +7°C° 0 mm 2 mps 737 mmHg 52%
    15:00 +6°C° 0 mm 2 mps 738 mmHg 56%
    16:00 +5°C° 0 mm 2 mps 738 mmHg 61%
    17:00 +4°C° 0 mm 2 mps 738 mmHg 63%
    18:00 +4°C° 0 mm 2 mps 738 mmHg 65%
    19:00 +3°C° 0 mm 2 mps 739 mmHg 67%
    20:00 +3°C° 0 mm 2 mps 739 mmHg 67%
    21:00 +3°C° 0 mm 2 mps 739 mmHg 66%
    22:00 +3°C° 0 mm 2 mps 739 mmHg 66%
    23:00 +3°C° 0 mm 2 mps 739 mmHg 66%

    29 November, Wednesday

    Time Temperature Precipitation Wind Pressure Humidity
    00:00 +3°C° 0 mm 2 mps 739 mmHg 65%
    01:00 +2°C° 0 mm 2 mps 739 mmHg 65%
    02:00 +2°C° 0 mm 2 mps 738 mmHg 64%
    03:00 +2°C° 0 mm 2 mps 738 mmHg 63%
    04:00 +2°C° 0 mm 2 mps 738 mmHg 62%
    05:00 +2°C° 0 mm 2 mps 738 mmHg 62%
    06:00 +2°C° 0 mm 2 mps 738 mmHg 61%
    07:00 +2°C° 0 mm 2 mps 739 mmHg 60%
    08:00 +4°C° 0 mm 2 mps 739 mmHg 55%
    09:00 +6°C° 0 mm 2 mps 739 mmHg 50%
    10:00 +7°C° 0 mm 2 mps 739 mmHg 44%
    11:00 +8°C° 0 mm 2 mps 738 mmHg 46%
    12:00 +8°C° 0 mm 2 mps 738 mmHg 47%
    13:00 +9°C° 0 mm 2 mps 738 mmHg 49%
    14:00 +8°C° 0 mm 2 mps 738 mmHg 55%
    15:00 +6°C° 0 mm 2 mps 738 mmHg 62%
    16:00 +5°C° 0 mm 2 mps 738 mmHg 68%
    17:00 +5°C° 0 mm 2 mps 738 mmHg 70%
    18:00 +4°C° 0 mm 2 mps 739 mmHg 71%
    19:00 +4°C° 0 mm 2 mps 739 mmHg 72%
    20:00 +4°C° 0 mm 2 mps 739 mmHg 71%
    21:00 +3°C° 0 mm 3 mps 739 mmHg 70%
    22:00 +3°C° 0 mm 3 mps 739 mmHg 69%
    23:00 +3°C° 0 mm 3 mps 739 mmHg 71%
    Show more